Volver al catálogo

STARLINK-6261

ActivoComunicacionesVLEO
NORAD 56417·PAYLOAD·🇺🇸 United States

Lanzado May 4, 2023 desde Cape Canaveral Space Force Station

Loading…

Próximos Pases (próximas 24 horas)

TLE

ActualizadoSource: CelesTrak SupGP

Época: Sep 15, 2026, 01:25 UTC

1 56417C 23061AV  26258.05951389 -.00019577  00000+0 -70917-3 0  2583
2 56417  43.0015 197.4632 0001685 273.5130 227.8855 15.27583268    16

Sigue STARLINK-6261 en tiempo real con AllMySat

Download on the App Store